FW6692 Weather Reports


time (UTC)temp
C
wind
direction
speed
KPH
gust
KPH
rain 1hr
cm
rain 24hr
cm
rain mn
cm
humidity
%
barometer
mb
20260509213049 32 186 1.6 8.0 0.00 0.00 0.00 50 1012.4
20260509211546 31 0 1.6 12.9 0.00 0.00 0.00 53 1012.5
20260509210052 31 225 3.2 12.9 0.00 0.00 0.00 56 1012.9
20260509204557 31 200 0.0 11.3 0.00 0.00 0.00 57 1013.2
20260509203052 31 0 0.0 14.5 0.00 0.00 0.00 56 1013.4
20260509201556 30 0 0.0 12.9 0.00 0.00 0.00 60 1013.4
20260509194555 30 0 1.6 17.7 0.00 0.00 0.00 61 1013.8
20260509193051 29 0 3.2 19.3 0.00 0.00 0.00 62 1013.9
20260509191548 29 140 1.6 6.4 0.00 0.00 0.00 63 1014.2
20260509190101 28 0 1.6 17.7 0.00 0.00 0.00 62 1014.5
20260509184544 29 0 0.0 14.5 0.00 0.00 0.00 64 1014.7
20260509183049 28 155 3.2 17.7 0.00 0.00 0.00 65 1015.0
20260509181553 28 131 1.6 16.1 0.00 0.00 0.00 66 1015.1
20260509180053 27 117 9.7 19.3 0.00 0.00 0.00 67 1015.2
20260509174547 27 113 4.8 19.3 0.00 0.00 0.00 70 1015.4
20260509173047 27 63 1.6 17.7 0.00 0.00 0.00 68 1015.6
20260509171547 27 127 8.0 17.7 0.00 0.00 0.00 70 1015.6
20260509170042 27 140 3.2 11.3 0.00 0.00 0.00 69 1015.7
20260509164555 28 129 1.6 9.7 0.00 0.00 0.00 68 1015.5
20260509163051 27 342 6.4 14.5 0.00 0.00 0.00 72 1015.4
20260509161558 27 324 4.8 12.9 0.00 0.00 0.00 72 1015.3
20260509160051 28 0 4.8 11.3 0.00 0.00 0.00 70 1015.5
20260509154555 27 254 4.8 11.3 0.00 0.00 0.00 76 1015.4
20260509153056 26 338 4.8 9.7 0.00 0.00 0.00 76 1015.5
20260509151552 27 332 3.2 8.0 0.00 0.00 0.00 77 1015.2
20260509150054 27 278 4.8 12.9 0.00 0.00 0.00 79 1015.2
20260509144553 26 248 9.7 12.9 0.00 0.00 0.00 80 1014.8
20260509143055 25 248 8.0 12.9 0.00 0.00 0.00 81 1014.7
20260509141549 25 276 6.4 12.9 0.00 0.00 0.00 83 1014.7
20260509140059 24 297 8.0 16.1 0.00 0.00 0.00 85 1014.7
20260509134607 23 279 9.7 19.3 0.00 0.00 0.00 87 1014.7
20260509133050 22 257 6.4 16.1 0.00 0.00 0.00 93 1014.4
20260509131551 21 286 3.2 9.7 0.00 0.00 0.00 98 1014.5
20260509130048 20 140 1.6 6.4 0.00 0.00 0.00 98 1013.8
20260509124549 19 123 4.8 11.3 0.00 0.00 0.00 98 1013.5
20260509123052 18 143 1.6 8.0 0.00 0.00 0.00 98 1013.5
20260509121549 18 150 12.9 24.1 0.00 0.00 0.00 98 1013.2
20260509120052 18 0 0.0 6.4 0.00 0.00 0.00 98 1014.1
20260509114548 18 165 1.6 9.7 0.00 0.00 0.00 97 1013.9
20260509113053 18 140 12.9 17.7 0.00 0.00 0.00 97 1014.0
20260509111551 18 142 6.4 11.3 0.00 0.00 0.00 97 1014.6
20260509110046 18 138 6.4 11.3 0.00 0.00 0.00 97 1015.0
20260509104548 18 52 6.4 17.7 0.00 0.00 0.00 97 1015.7
20260509103053 19 327 4.8 17.7 0.00 0.00 0.00 98 1016.4
20260509101552 19 329 6.4 16.1 0.00 0.00 0.00 98 1016.8
20260509100051 18 329 12.9 22.5 0.00 0.00 0.00 99 1016.6
20260509094554 18 282 4.8 6.4 0.00 0.03 0.00 97 1015.7
20260509093057 18 344 4.8 8.0 0.00 0.03 0.00 98 1015.8
20260509091554 18 336 1.6 6.4 0.00 0.03 0.00 97 1015.7
20260509090051 18 0 0.0 12.9 0.00 0.03 0.00 98 1015.3
20260509084552 19 5 4.8 14.5 0.00 0.03 0.00 98 1015.6
20260509083055 18 0 0.0 3.2 0.00 0.03 0.00 97 1014.9
20260509081552 18 0 0.0 4.8 0.00 0.03 0.00 97 1014.9
20260509080052 18 97 3.2 8.0 0.00 0.03 0.00 98 1015.0
20260509074558 18 0 0.0 3.2 0.00 0.03 0.00 97 1015.1
20260509073053 18 0 0.0 4.8 0.00 0.03 0.00 97 1014.9
20260509071546 18 0 0.0 0.0 0.00 0.03 0.00 97 1015.1
20260509070054 18 0 0.0 0.0 0.00 0.03 0.00 97 1015.4
20260509064559 19 0 0.0 0.0 0.00 0.03 0.00 97 1015.0
20260509063058 19 0 0.0 0.0 0.00 0.03 0.00 97 1015.7
20260509061559 18 0 0.0 3.2 0.00 0.03 0.00 97 1015.5
20260509060048 19 155 0.0 4.8 0.00 0.03 0.00 97 1015.4
20260509054554 18 0 0.0 3.2 0.00 0.03 0.00 97 1015.7
20260509053049 18 0 0.0 0.0 0.00 0.03 0.00 96 1014.7
20260509051551 18 0 0.0 3.2 0.00 0.03 0.00 96 1014.7
20260509050050 18 147 1.6 4.8 0.00 0.03 0.00 96 1014.4
20260509044544 19 0 0.0 4.8 0.00 0.03 0.03 97 1014.2
20260509043057 18 0 0.0 0.0 0.00 0.03 0.03 96 1014.0
20260509041548 18 0 0.0 3.2 0.00 0.03 0.03 95 1014.3
20260509040050 18 147 3.2 4.8 0.00 0.03 0.03 96 1014.4
20260509034552 18 0 0.0 0.0 0.00 0.03 0.03 95 1014.3
20260509033054 19 0 0.0 0.0 0.00 0.03 0.03 95 1014.1
20260509031552 19 0 0.0 0.0 0.00 0.03 0.03 95 1014.0
20260509030053 19 0 0.0 6.4 0.00 0.03 0.03 95 1013.8
20260509024546 19 147 3.2 6.4 0.00 0.03 0.03 95 1013.5
20260509023045 20 128 3.2 6.4 0.00 0.03 0.03 94 1013.5
20260509021555 20 128 6.4 11.3 0.00 0.03 0.03 93 1013.4
20260509020046 20 111 6.4 11.3 0.00 0.03 0.03 93 1013.1
20260509014548 20 107 6.4 11.3 0.00 0.03 0.03 92 1013.1
20260509013055 21 115 8.0 11.3 0.00 0.03 0.03 91 1013.1
20260509011545 21 111 4.8 12.9 0.00 0.03 0.03 90 1013.0
20260509010046 21 103 6.4 14.5 0.00 0.03 0.03 89 1013.1
20260509004601 21 96 11.3 20.9 0.00 0.03 0.03 88 1012.7
20260509003051 22 115 12.9 24.1 0.00 0.03 0.03 88 1012.7
20260509001551 22 108 14.5 20.9 0.00 0.03 0.03 87 1013.0
20260509000045 22 130 17.7 25.7 0.00 0.03 0.03 86 1013.0
20260508234550 22 113 17.7 24.1 0.00 0.03 0.03 86 1013.0
20260508233051 22 113 17.7 25.7 0.00 0.03 0.03 86 1013.0
20260508231552 22 115 14.5 20.9 0.00 0.03 0.03 86 1013.0
20260508230053 22 123 11.3 19.3 0.00 0.03 0.03 87 1012.9
20260508224553 22 118 14.5 19.3 0.00 0.03 0.03 86 1013.0
20260508223050 22 98 12.9 20.9 0.00 0.03 0.03 85 1012.9
20260508221551 22 125 14.5 22.5 0.00 0.03 0.03 85 1013.1
20260508220052 22 108 16.1 24.1 0.00 0.03 0.03 84 1013.1
20260508214603 22 127 14.5 22.5 0.00 0.03 0.03 85 1013.3